| time (UTC) | temp F | wind direction | speed knots | gust knots | rain 1hr in | rain 24hr in | rain mn in | humidity % | barometer mb |
| 20260504030508 | 55 | 280 | 10.4 | 16.5 | 0.00 | 0.00 | 0.00 | 54 | 975.8 |
| 20260504030008 | 55 | 260 | 7.8 | 12.2 | 0.00 | 0.00 | 0.00 | 54 | 975.8 |
| 20260504025508 | 55 | 255 | 8.7 | 12.2 | 0.00 | 0.00 | 0.00 | 53 | 975.8 |
| 20260504025007 | 55 | 270 | 8.7 | 12.2 | 0.00 | 0.00 | 0.00 | 53 | 975.8 |
| 20260504023946 | 55 | 274 | 9.6 | 13.9 | 0.00 | 0.00 | 0.00 | 52 | 975.8 |
| 20260504022925 | 55 | 283 | 7.0 | 11.3 | 0.00 | 0.00 | 0.00 | 50 | 975.7 |
| 20260504022424 | 55 | 274 | 8.7 | 12.2 | 0.00 | 0.00 | 0.00 | 49 | 975.7 |
| 20260504021924 | 55 | 284 | 7.8 | 10.4 | 0.00 | 0.00 | 0.00 | 49 | 975.7 |
| 20260504021424 | 55 | 255 | 8.7 | 12.2 | 0.00 | 0.00 | 0.00 | 48 | 975.7 |
| 20260504020924 | 55 | 267 | 4.3 | 6.1 | 0.00 | 0.00 | 0.00 | 48 | 975.6 |
| 20260504020423 | 56 | 272 | 6.1 | 8.7 | 0.00 | 0.00 | 0.00 | 48 | 975.6 |
| 20260504015922 | 56 | 274 | 7.0 | 9.6 | 0.00 | 0.00 | 0.00 | 48 | 975.6 |
| 20260504014901 | 56 | 271 | 9.6 | 13.9 | 0.00 | 0.00 | 0.00 | 47 | 975.5 |
| 20260504014401 | 56 | 255 | 7.8 | 14.8 | 0.00 | 0.00 | 0.00 | 47 | 975.5 |
| 20260504013900 | 56 | 267 | 7.0 | 9.6 | 0.00 | 0.00 | 0.00 | 46 | 975.5 |
| 20260504013400 | 56 | 272 | 10.4 | 13.9 | 0.00 | 0.00 | 0.00 | 46 | 975.4 |
| 20260504012900 | 56 | 283 | 6.1 | 8.7 | 0.00 | 0.00 | 0.00 | 46 | 975.4 |
| 20260504012400 | 56 | 275 | 7.8 | 12.2 | 0.00 | 0.00 | 0.00 | 46 | 975.4 |
| 20260504011900 | 56 | 259 | 3.5 | 6.1 | 0.00 | 0.00 | 0.00 | 47 | 975.3 |
| 20260504010838 | 56 | 266 | 6.1 | 11.3 | 0.00 | 0.00 | 0.00 | 47 | 975.3 |
| 20260504010338 | 56 | 251 | 3.5 | 7.0 | 0.00 | 0.00 | 0.00 | 47 | 975.3 |
| 20260504005316 | 58 | 198 | 2.6 | 5.2 | 0.00 | 0.00 | 0.00 | 42 | 975.2 |
| 20260504004816 | 58 | 269 | 6.1 | 7.8 | 0.00 | 0.00 | 0.00 | 40 | 975.2 |
| 20260504004315 | 58 | 272 | 5.2 | 7.0 | 0.00 | 0.00 | 0.00 | 40 | 975.2 |
| 20260504003815 | 58 | 282 | 4.3 | 8.7 | 0.00 | 0.00 | 0.00 | 40 | 975.1 |
| 20260504003314 | 58 | 267 | 7.0 | 12.2 | 0.00 | 0.00 | 0.00 | 39 | 975.1 |
| 20260504002814 | 58 | 264 | 5.2 | 7.8 | 0.00 | 0.00 | 0.00 | 40 | 975.1 |
| 20260504001752 | 58 | 251 | 5.2 | 9.6 | 0.00 | 0.00 | 0.00 | 39 | 975.0 |
| 20260504001252 | 58 | 265 | 6.1 | 10.4 | 0.00 | 0.00 | 0.00 | 39 | 975.0 |
| 20260504000752 | 58 | 265 | 5.2 | 10.4 | 0.00 | 0.00 | 0.00 | 38 | 974.9 |
| 20260504000252 | 58 | 269 | 8.7 | 12.2 | 0.00 | 0.00 | 0.00 | 38 | 975.0 |
| 20260503235752 | 58 | 261 | 5.2 | 7.8 | 0.00 | 0.00 | 0.00 | 38 | 975.0 |
| 20260503235250 | 58 | 272 | 7.8 | 11.3 | 0.00 | 0.00 | 0.00 | 38 | 975.0 |
| 20260503234750 | 59 | 261 | 9.6 | 12.2 | 0.00 | 0.00 | 0.00 | 38 | 975.0 |
| 20260503233208 | 59 | 267 | 9.6 | 13.9 | 0.00 | 0.00 | 0.00 | 37 | 975.0 |
| 20260503232146 | 59 | 270 | 7.8 | 10.4 | 0.00 | 0.00 | 0.00 | 36 | 975.1 |
| 20260503231125 | 59 | 278 | 8.7 | 13.9 | 0.00 | 0.00 | 0.00 | 36 | 975.1 |
| 20260503230625 | 59 | 266 | 5.2 | 7.0 | 0.00 | 0.00 | 0.00 | 36 | 975.2 |
| 20260503230124 | 59 | 281 | 6.1 | 7.8 | 0.00 | 0.00 | 0.00 | 36 | 975.2 |
| 20260503225623 | 59 | 278 | 8.7 | 13.0 | 0.00 | 0.00 | 0.00 | 36 | 975.2 |
| 20260503225122 | 59 | 282 | 8.7 | 15.6 | 0.00 | 0.00 | 0.00 | 36 | 975.2 |
| 20260503224622 | 59 | 283 | 7.0 | 13.0 | 0.00 | 0.00 | 0.00 | 36 | 975.2 |
| 20260503224122 | 59 | 271 | 9.6 | 13.9 | 0.00 | 0.00 | 0.00 | 36 | 975.3 |
| 20260503223622 | 59 | 285 | 5.2 | 9.6 | 0.00 | 0.00 | 0.00 | 36 | 975.3 |
| 20260503223121 | 59 | 262 | 8.7 | 11.3 | 0.00 | 0.00 | 0.00 | 36 | 975.4 |
| 20260503222059 | 59 | 270 | 5.2 | 8.7 | 0.00 | 0.00 | 0.00 | 36 | 975.5 |
| 20260503221559 | 59 | 268 | 8.7 | 13.0 | 0.00 | 0.00 | 0.00 | 36 | 975.5 |
| 20260503221058 | 59 | 253 | 7.0 | 13.9 | 0.00 | 0.00 | 0.00 | 36 | 975.5 |
| 20260503220558 | 59 | 255 | 5.2 | 7.8 | 0.00 | 0.00 | 0.00 | 36 | 975.5 |
| 20260503215536 | 59 | 266 | 7.8 | 12.2 | 0.00 | 0.00 | 0.00 | 35 | 975.5 |
| 20260503215036 | 59 | 262 | 7.0 | 9.6 | 0.00 | 0.00 | 0.00 | 36 | 975.5 |
| 20260503214536 | 58 | 273 | 6.1 | 7.8 | 0.00 | 0.00 | 0.00 | 36 | 975.5 |
| 20260503214036 | 58 | 269 | 5.2 | 7.8 | 0.00 | 0.00 | 0.00 | 36 | 975.5 |
| 20260503213535 | 58 | 260 | 7.0 | 11.3 | 0.00 | 0.00 | 0.00 | 35 | 975.5 |
| 20260503213035 | 58 | 280 | 7.0 | 13.0 | 0.00 | 0.00 | 0.00 | 36 | 975.5 |
| 20260503212013 | 58 | 253 | 7.0 | 12.2 | 0.00 | 0.00 | 0.00 | 36 | 975.6 |
| 20260503211513 | 58 | 289 | 5.2 | 8.7 | 0.00 | 0.00 | 0.00 | 36 | 975.6 |
| 20260503211012 | 58 | 297 | 5.2 | 7.8 | 0.00 | 0.00 | 0.00 | 37 | 975.7 |
| 20260503210512 | 58 | 286 | 4.3 | 6.1 | 0.00 | 0.00 | 0.00 | 38 | 975.8 |
| 20260503210011 | 58 | 272 | 5.2 | 7.0 | 0.00 | 0.00 | 0.00 | 38 | 976.0 |
| 20260503205511 | 57 | 301 | 4.3 | 6.1 | 0.00 | 0.00 | 0.00 | 38 | 976.0 |
| 20260503205011 | 57 | 272 | 7.0 | 14.8 | 0.00 | 0.00 | 0.00 | 38 | 976.1 |
| 20260503204510 | 57 | 292 | 6.1 | 8.7 | 0.00 | 0.00 | 0.00 | 39 | 976.2 |
| 20260503204010 | 57 | 279 | 6.1 | 10.4 | 0.00 | 0.00 | 0.00 | 40 | 976.4 |
| 20260503203510 | 57 | 303 | 3.5 | 5.2 | 0.00 | 0.00 | 0.00 | 42 | 976.4 |
| 20260503203010 | 57 | 329 | 6.1 | 9.6 | 0.00 | 0.00 | 0.00 | 41 | 976.3 |
| 20260503202510 | 57 | 309 | 3.5 | 4.3 | 0.00 | 0.00 | 0.00 | 41 | 976.3 |
| 20260503200926 | 57 | 313 | 4.3 | 7.8 | 0.00 | 0.00 | 0.00 | 43 | 976.5 |
| 20260503200426 | 57 | 319 | 10.4 | 16.5 | 0.00 | 0.00 | 0.00 | 43 | 976.6 |
| 20260503195405 | 57 | 290 | 4.3 | 6.1 | 0.00 | 0.00 | 0.00 | 38 | 976.4 |
| 20260503194904 | 57 | 273 | 7.0 | 9.6 | 0.00 | 0.00 | 0.00 | 40 | 976.6 |
| 20260503193843 | 57 | 289 | 7.0 | 11.3 | 0.00 | 0.00 | 0.00 | 37 | 976.5 |
| 20260503193343 | 57 | 318 | 7.8 | 12.2 | 0.00 | 0.00 | 0.00 | 38 | 976.6 |
| 20260503192842 | 57 | 325 | 7.0 | 13.9 | 0.00 | 0.00 | 0.00 | 40 | 976.6 |
| 20260503191821 | 57 | 286 | 3.5 | 6.1 | 0.00 | 0.00 | 0.00 | 41 | 976.8 |
| 20260503191321 | 57 | 284 | 7.0 | 10.4 | 0.00 | 0.00 | 0.00 | 40 | 976.9 |
| 20260503190821 | 56 | 284 | 8.7 | 14.8 | 0.00 | 0.00 | 0.00 | 42 | 977.0 |
| 20260503185759 | 56 | 269 | 8.7 | 13.0 | 0.00 | 0.00 | 0.00 | 44 | 977.2 |
| 20260503185259 | 56 | 289 | 6.1 | 11.3 | 0.00 | 0.00 | 0.00 | 44 | 977.2 |
| 20260503184237 | 57 | 320 | 7.0 | 8.7 | 0.00 | 0.00 | 0.00 | 41 | 977.3 |
| 20260503183736 | 57 | 278 | 6.1 | 10.4 | 0.00 | 0.00 | 0.00 | 40 | 977.1 |
| 20260503183236 | 57 | 302 | 7.0 | 9.6 | 0.00 | 0.00 | 0.00 | 39 | 977.1 |
| 20260503182736 | 57 | 312 | 7.8 | 9.6 | 0.00 | 0.00 | 0.00 | 38 | 977.1 |
| 20260503182236 | 57 | 303 | 6.1 | 9.6 | 0.00 | 0.00 | 0.00 | 38 | 977.2 |
| 20260503181736 | 57 | 340 | 8.7 | 11.3 | 0.00 | 0.00 | 0.00 | 38 | 977.2 |
| 20260503181235 | 57 | 266 | 4.3 | 8.7 | 0.00 | 0.00 | 0.00 | 38 | 977.2 |
| 20260503180734 | 58 | 307 | 7.8 | 13.9 | 0.00 | 0.00 | 0.00 | 38 | 977.2 |
| 20260503180234 | 58 | 289 | 4.3 | 8.7 | 0.00 | 0.00 | 0.00 | 35 | 977.1 |
| 20260503175734 | 59 | 278 | 8.7 | 16.5 | 0.00 | 0.00 | 0.00 | 34 | 977.0 |
| 20260503174712 | 59 | 283 | 7.8 | 10.4 | 0.00 | 0.00 | 0.00 | 33 | 977.1 |
| 20260503173651 | 58 | 290 | 4.3 | 7.8 | 0.00 | 0.00 | 0.00 | 36 | 977.1 |
| 20260503173151 | 58 | 282 | 6.1 | 13.0 | 0.00 | 0.00 | 0.00 | 35 | 977.1 |
| 20260503172651 | 59 | 270 | 6.1 | 12.2 | 0.00 | 0.00 | 0.00 | 35 | 977.2 |
| 20260503171628 | 58 | 255 | 5.2 | 8.7 | 0.00 | 0.00 | 0.00 | 36 | 977.4 |
| 20260503150810 | 51 | 259 | 7.0 | 9.6 | 0.00 | 0.00 | 0.00 | 41 | 979.1 |
| 20260503150309 | 51 | 269 | 5.2 | 7.8 | 0.00 | 0.00 | 0.00 | 41 | 979.1 |
| 20260503140224 | 48 | 259 | 7.8 | 11.3 | 0.00 | 0.00 | 0.00 | 42 | 979.8 |
| 20260503131218 | 45 | 293 | 5.2 | 8.7 | 0.00 | 0.00 | 0.00 | 44 | 980.3 |
| 20260503130718 | 45 | 261 | 4.3 | 7.0 | 0.00 | 0.00 | 0.00 | 43 | 980.3 |
| 20260503120112 | 39 | 266 | 6.1 | 8.7 | 0.00 | 0.00 | 0.00 | 62 | 980.9 |
| 20260503110608 | 37 | 276 | 3.5 | 5.2 | 0.00 | 0.00 | 0.00 | 68 | 980.8 |
| 20260503110107 | 37 | 281 | 3.5 | 5.2 | 0.00 | 0.00 | 0.00 | 69 | 980.8 |
| 20260503090458 | 37 | 262 | 3.5 | 6.1 | 0.00 | 0.00 | 0.00 | 69 | 980.9 |
| 20260503081435 | 35 | 253 | 2.6 | 3.5 | 0.00 | 0.00 | 0.00 | 72 | 980.9 |
| 20260503080934 | 35 | 240 | 2.6 | 3.5 | 0.00 | 0.00 | 0.00 | 72 | 980.9 |
| 20260503080434 | 35 | 269 | 3.5 | 4.3 | 0.00 | 0.00 | 0.00 | 73 | 980.9 |
| 20260503072351 | 36 | 239 | 2.6 | 5.2 | 0.00 | 0.00 | 0.00 | 72 | 980.9 |
| 20260503071850 | 35 | 251 | 4.3 | 7.0 | 0.00 | 0.00 | 0.00 | 72 | 980.9 |
| 20260503071350 | 35 | 227 | 2.6 | 5.2 | 0.00 | 0.00 | 0.00 | 74 | 980.9 |
| 20260503070850 | 35 | 233 | 1.7 | 3.5 | 0.00 | 0.00 | 0.00 | 74 | 980.9 |
| 20260503070350 | 34 | 236 | 1.7 | 1.7 | 0.00 | 0.00 | 0.00 | 74 | 981.0 |
| 20260503054825 | 34 | 194 | 1.7 | 2.6 | 0.00 | 0.00 | 0.00 | 72 | 981.7 |
| 20260503054325 | 35 | 195 | 1.7 | 1.7 | 0.00 | 0.00 | 0.00 | 72 | 981.7 |
| 20260503052221 | 35 | 223 | 1.7 | 1.7 | 0.00 | 0.00 | 0.00 | 68 | 981.9 |
| 20260503051721 | 35 | 243 | 1.7 | 2.6 | 0.00 | 0.00 | 0.00 | 68 | 981.9 |
| 20260503051221 | 35 | 224 | 1.7 | 1.7 | 0.00 | 0.00 | 0.00 | 68 | 981.9 |
| 20260503050159 | 35 | 219 | 1.7 | 2.6 | 0.00 | 0.00 | 0.00 | 67 | 982.0 |
| 20260503045659 | 35 | 238 | 1.7 | 3.5 | 0.00 | 0.00 | 0.00 | 66 | 982.1 |
| 20260503045159 | 34 | 245 | 2.6 | 3.5 | 0.00 | 0.00 | 0.00 | 66 | 982.1 |
| 20260503044658 | 34 | 225 | 0.9 | 1.7 | 0.00 | 0.00 | 0.00 | 66 | 982.1 |
| 20260503044158 | 34 | 228 | 1.7 | 1.7 | 0.00 | 0.00 | 0.00 | 66 | 982.1 |
| 20260503043658 | 34 | 198 | 1.7 | 1.7 | 0.00 | 0.00 | 0.00 | 66 | 982.2 |
| 20260503042115 | 35 | 225 | 1.7 | 1.7 | 0.00 | 0.00 | 0.00 | 64 | 982.2 |
| 20260503041615 | 35 | 240 | 1.7 | 2.6 | 0.00 | 0.00 | 0.00 | 63 | 982.2 |
| 20260503041115 | 35 | 230 | 1.7 | 1.7 | 0.00 | 0.00 | 0.00 | 64 | 982.3 |
| 20260503040615 | 35 | 220 | 1.7 | 1.7 | 0.00 | 0.00 | 0.00 | 62 | 982.3 |
| 20260503035553 | 34 | 248 | 2.6 | 3.5 | 0.00 | 0.00 | 0.00 | 63 | 982.3 |
| 20260503035053 | 34 | 243 | 1.7 | 2.6 | 0.00 | 0.00 | 0.00 | 65 | 982.3 |
| 20260503034553 | 34 | 204 | 1.7 | 1.7 | 0.00 | 0.00 | 0.00 | 64 | 982.3 |
| 20260503033531 | 34 | 189 | 1.7 | 1.7 | 0.00 | 0.00 | 0.00 | 64 | 982.3 |
| 20260503033031 | 34 | 197 | 1.7 | 1.7 | 0.00 | 0.00 | 0.00 | 64 | 982.4 |
| 20260503032010 | 33 | 213 | 0.9 | 1.7 | 0.00 | 0.00 | 0.00 | 66 | 982.5 |
| 20260503031510 | 33 | 215 | 1.7 | 1.7 | 0.00 | 0.00 | 0.00 | 66 | 982.5 |
| 20260503031009 | 33 | 200 | 1.7 | 1.7 | 0.00 | 0.00 | 0.00 | 65 | 982.5 |